EW9394 Weather Reports


time (UTC)temp
F
wind
direction
speed
knots
gust
knots
rain 1hr
in
rain 24hr
in
rain mn
in
humidity
%
barometer
mb
20260505224335 87 170 2.6 2.6 0.00 0.00 0.00 66 1005.0
20260505223832 87 192 0.9 1.7 0.00 0.00 0.00 66 1005.4
20260505223329 89 209 0.9 1.7 0.00 0.00 0.00 64 1004.8
20260505222824 89 191 3.5 5.2 0.00 0.00 0.00 63 1004.8
20260505222321 89 202 3.5 5.2 0.00 0.00 0.00 62 1005.1
20260505221818 90 194 0.9 0.9 0.00 0.00 0.00 60 1005.1
20260505221315 90 190 0.9 0.9 0.00 0.00 0.00 59 1005.1
20260505220812 91 220 1.7 2.6 0.00 0.00 0.00 56 1005.1
20260505220309 91 235 0.9 0.9 0.00 0.00 0.00 54 1004.9
20260505215807 91 157 2.6 2.6 0.00 0.00 0.00 54 1005.0
20260505215305 91 170 2.6 2.6 0.00 0.00 0.00 53 1005.0
20260505214802 92 195 0.9 0.9 0.00 0.00 0.00 53 1004.8
20260505214259 92 215 2.6 5.2 0.00 0.00 0.00 54 1005.0
20260505213756 92 248 4.3 6.1 0.00 0.00 0.00 54 1005.2
20260505213254 92 261 3.5 5.2 0.00 0.00 0.00 54 1005.3
20260505212749 92 242 0.9 0.9 0.00 0.00 0.00 54 1005.2
20260505212247 91 186 1.7 1.7 0.00 0.00 0.00 54 1005.2
20260505211743 91 186 1.7 1.7 0.00 0.00 0.00 54 1005.4
20260505211241 90 268 1.7 1.7 0.00 0.00 0.00 55 1005.3
20260505210737 91 256 2.6 4.3 0.00 0.00 0.00 56 1005.2
20260505210234 91 209 0.9 1.7 0.00 0.00 0.00 56 1005.4
20260505205732 91 192 1.7 2.6 0.00 0.00 0.00 56 1005.4
20260505205230 91 281 1.7 2.6 0.00 0.00 0.00 57 1005.2
20260505204726 91 206 1.7 2.6 0.00 0.00 0.00 58 1005.5
20260505204224 90 165 1.7 1.7 0.00 0.00 0.00 58 1005.8
20260505203721 90 205 7.0 7.8 0.00 0.00 0.00 58 1006.0
20260505203218 90 174 2.6 2.6 0.00 0.00 0.00 59 1005.8
20260505202713 89 156 6.1 7.8 0.00 0.00 0.00 60 1005.9
20260505202210 89 197 1.7 2.6 0.00 0.00 0.00 63 1005.9
20260505201706 88 196 2.6 4.3 0.00 0.00 0.00 63 1006.0
20260505201204 87 183 1.7 2.6 0.00 0.00 0.00 63 1005.8
20260505200702 87 186 5.2 8.7 0.00 0.00 0.00 64 1006.2
20260505200159 88 192 0.9 1.7 0.00 0.00 0.00 63 1006.3
20260505195654 87 201 7.0 7.0 0.00 0.00 0.00 64 1006.1
20260505195152 87 180 3.5 4.3 0.00 0.00 0.00 64 1006.1
20260505194649 88 246 3.5 6.1 0.00 0.00 0.00 64 1006.2
20260505194145 88 187 1.7 2.6 0.00 0.00 0.00 64 1006.4
20260505193642 87 232 3.5 5.2 0.00 0.00 0.00 66 1006.3
20260505193139 86 203 0.9 1.7 0.00 0.00 0.00 68 1006.2
20260505192638 86 172 4.3 6.1 0.00 0.00 0.00 67 1006.3
20260505192135 86 169 6.1 11.3 0.00 0.00 0.00 67 1006.3
20260505191633 86 179 5.2 7.8 0.00 0.00 0.00 67 1006.2
20260505191131 86 183 2.6 2.6 0.00 0.00 0.00 68 1006.1
20260505190626 84 200 0.9 0.9 0.00 0.00 0.00 70 1006.3
20260505190121 84 160 4.3 7.0 0.00 0.00 0.00 69 1006.5
20260505185619 84 167 4.3 5.2 0.00 0.00 0.00 70 1006.2
20260505185115 84 160 6.1 9.6 0.00 0.00 0.00 69 1006.2
20260505184611 84 176 5.2 6.1 0.00 0.00 0.00 68 1006.4
20260505184108 84 146 6.1 7.8 0.00 0.00 0.00 68 1006.6
20260505183605 83 217 0.9 1.7 0.00 0.00 0.00 70 1006.5
20260505183103 83 223 2.6 5.2 0.00 0.00 0.00 69 1006.4
20260505182558 84 193 4.3 5.2 0.00 0.00 0.00 69 1006.6
20260505182055 83 173 4.3 6.1 0.00 0.00 0.00 69 1006.7
20260505181552 83 214 2.6 2.6 0.00 0.00 0.00 70 1006.5
20260505181049 83 237 0.9 1.7 0.00 0.00 0.00 70 1006.5
20260505180545 83 202 6.1 8.7 0.00 0.00 0.00 69 1006.6
20260505180044 83 158 7.0 8.7 0.00 0.00 0.00 70 1006.6
20260505175543 83 176 2.6 4.3 0.00 0.00 0.00 69 1006.6
20260505175040 82 195 3.5 5.2 0.00 0.00 0.00 71 1006.5
20260505174538 83 229 5.2 8.7 0.00 0.00 0.00 70 1006.6
20260505174033 83 206 4.3 6.1 0.00 0.00 0.00 70 1006.6
20260505173530 83 187 1.7 1.7 0.00 0.00 0.00 71 1006.6
20260505173027 83 183 7.0 8.7 0.00 0.00 0.00 70 1006.7
20260505172525 84 179 1.7 2.6 0.00 0.00 0.00 69 1006.7
20260505172021 83 160 4.3 5.2 0.00 0.00 0.00 70 1006.8
20260505171516 82 230 4.3 6.1 0.00 0.00 0.00 72 1006.5
20260505171014 82 215 2.6 2.6 0.00 0.00 0.00 72 1006.7
20260505170510 82 119 5.2 7.0 0.00 0.00 0.00 71 1006.9
20260505170006 82 205 0.0 0.9 0.00 0.00 0.00 72 1006.8
20260505165502 82 179 2.6 5.2 0.00 0.00 0.00 71 1006.8
20260505164957 82 209 1.7 1.7 0.00 0.00 0.00 73 1006.5
20260505164448 81 140 1.7 2.6 0.00 0.00 0.00 72 1006.7
20260505163946 82 196 2.6 4.3 0.00 0.00 0.00 72 1006.6
20260505163444 81 194 2.6 6.1 0.00 0.00 0.00 72 1006.5
20260505162944 81 196 2.6 4.3 0.00 0.00 0.00 72 1006.6
20260505162439 81 298 3.5 5.2 0.00 0.00 0.00 72 1006.6
20260505161936 81 180 2.6 5.2 0.00 0.00 0.00 73 1006.6
20260505161432 80 171 3.5 6.1 0.00 0.00 0.00 73 1006.5
20260505160930 80 192 2.6 2.6 0.00 0.00 0.00 75 1006.5
20260505160428 80 161 6.1 8.7 0.00 0.00 0.00 73 1006.5
20260505152904 78 154 3.5 5.2 0.00 0.00 0.00 78 1006.6
20260505152402 78 196 4.3 7.0 0.00 0.00 0.00 79 1006.5
20260505151901 78 217 0.9 1.7 0.00 0.00 0.00 79 1006.7
20260505151358 77 192 4.3 6.1 0.00 0.00 0.00 80 1006.8
20260505150855 77 216 3.5 5.2 0.00 0.00 0.00 80 1006.8
20260505150352 76 199 1.7 2.6 0.00 0.00 0.00 81 1006.5
20260505140317 73 179 3.5 6.1 0.00 0.00 0.00 86 1006.4
20260505130240 72 203 6.1 8.7 0.00 0.00 0.00 88 1006.1
20260505124731 71 210 3.5 5.2 0.00 0.00 0.00 88 1006.4
20260505124228 71 175 4.3 7.0 0.00 0.00 0.00 88 1006.4
20260505123723 71 186 5.2 6.1 0.00 0.00 0.00 88 1006.1
20260505123220 71 202 3.5 5.2 0.00 0.00 0.00 88 1005.7
20260505122716 71 153 3.5 5.2 0.00 0.00 0.00 88 1005.7
20260505122214 71 183 3.5 5.2 0.00 0.00 0.00 89 1005.6
20260505121710 71 186 4.3 6.1 0.00 0.00 0.00 89 1006.0
20260505121207 71 196 4.3 5.2 0.00 0.00 0.00 88 1005.8
20260505120703 71 167 3.5 5.2 0.00 0.00 0.00 88 1005.8
20260505120159 71 167 4.3 7.0 0.00 0.00 0.00 88 1005.6
20260505115653 71 197 4.3 6.1 0.00 0.00 0.00 89 1005.7
20260505115151 71 173 6.1 8.7 0.00 0.00 0.00 89 1005.7
20260505114648 71 166 4.3 6.1 0.00 0.00 0.00 88 1005.7
20260505114144 71 150 7.0 7.8 0.00 0.00 0.00 88 1005.7
20260505113640 71 180 4.3 6.1 0.00 0.00 0.00 88 1005.5
20260505113137 71 192 3.5 5.2 0.00 0.00 0.00 88 1005.5
20260505112633 71 190 4.3 5.2 0.00 0.00 0.00 88 1005.4
20260505112132 71 194 1.7 1.7 0.00 0.00 0.00 88 1005.4
20260505111631 71 144 7.8 9.6 0.00 0.00 0.00 88 1005.7
20260505111127 71 192 5.2 7.8 0.00 0.00 0.00 88 1005.6
20260505110624 71 187 4.3 5.2 0.00 0.00 0.00 88 1005.6
20260505110121 71 209 2.6 4.3 0.00 0.00 0.00 88 1005.3
20260505102057 71 183 7.0 8.7 0.00 0.00 0.00 87 1005.5
20260505101555 71 193 7.0 8.7 0.00 0.00 0.00 87 1005.7
20260505101051 71 194 3.5 4.3 0.00 0.00 0.00 87 1005.4
20260505100548 71 153 2.6 2.6 0.00 0.00 0.00 87 1005.6
20260505100045 71 155 2.6 4.3 0.00 0.00 0.00 87 1005.5
20260505095541 71 181 4.3 5.2 0.00 0.00 0.00 87 1005.7
20260505095037 71 180 5.2 7.8 0.00 0.00 0.00 87 1005.7
20260505094534 71 192 7.0 9.6 0.00 0.00 0.00 87 1006.0
20260505094030 71 190 4.3 6.1 0.00 0.00 0.00 87 1005.9
20260505093527 71 191 6.1 8.7 0.00 0.00 0.00 87 1005.9
20260505093024 71 184 2.6 2.6 0.00 0.00 0.00 87 1005.8
20260505092521 71 170 4.3 6.1 0.00 0.00 0.00 87 1006.1
20260505092020 71 145 2.6 4.3 0.00 0.00 0.00 87 1006.0
20260505091516 71 195 3.5 5.2 0.00 0.00 0.00 87 1006.0
20260505091014 71 177 3.5 6.1 0.00 0.00 0.00 87 1006.2
20260505090512 71 219 1.7 2.6 0.00 0.00 0.00 88 1006.1
20260505090010 71 166 3.5 6.1 0.00 0.00 0.00 88 1006.0
20260505085508 71 130 7.0 11.3 0.00 0.00 0.00 88 1006.2
20260505085006 71 206 4.3 7.8 0.00 0.00 0.00 88 1006.2
20260505084503 71 193 2.6 7.8 0.00 0.00 0.00 88 1005.9
20260505084001 71 159 6.1 7.8 0.00 0.00 0.00 88 1006.0
20260505083458 71 211 5.2 6.1 0.00 0.00 0.00 88 1006.0
20260505082954 71 180 3.5 5.2 0.00 0.00 0.00 88 1006.2
20260505082450 71 178 7.0 9.6 0.00 0.00 0.00 88 1006.1
20260505081947 71 190 3.5 4.3 0.00 0.00 0.00 88 1006.3
20260505081444 71 159 3.5 5.2 0.00 0.00 0.00 87 1006.1
20260505080940 71 197 3.5 4.3 0.00 0.00 0.00 87 1006.2
20260505080437 71 179 6.1 8.7 0.00 0.00 0.00 87 1006.1
20260505075932 71 178 4.3 7.0 0.00 0.00 0.00 87 1006.2
20260505075429 71 152 6.1 7.8 0.00 0.00 0.00 87 1006.5
20260505074927 71 160 1.7 2.6 0.00 0.00 0.00 86 1006.4
20260505074424 71 191 4.3 6.1 0.00 0.00 0.00 86 1006.5
20260505073921 71 172 5.2 7.0 0.00 0.00 0.00 86 1006.7
20260505073419 71 170 2.6 4.3 0.00 0.00 0.00 86 1006.8
20260505072916 71 173 4.3 7.0 0.00 0.00 0.00 86 1006.9
20260505072412 72 169 2.6 4.3 0.00 0.00 0.00 85 1007.0
20260505071908 72 222 4.3 6.1 0.00 0.00 0.00 85 1006.9
20260505071404 72 179 6.1 7.8 0.00 0.00 0.00 85 1007.0
20260505070902 72 194 2.6 2.6 0.00 0.00 0.00 84 1006.7
20260505070358 72 163 2.6 4.3 0.00 0.00 0.00 84 1006.9
20260505065854 72 157 7.0 11.3 0.00 0.00 0.00 84 1007.1
20260505065351 72 158 7.0 9.6 0.00 0.00 0.00 83 1007.1
20260505064848 72 199 7.8 11.3 0.00 0.00 0.00 83 1007.2
20260505064345 72 214 9.6 14.8 0.00 0.00 0.00 83 1007.4
20260505063844 72 174 2.6 4.3 0.00 0.00 0.00 83 1007.2
20260505063339 72 181 4.3 7.8 0.00 0.00 0.00 83 1007.2
20260505062836 72 193 6.1 7.8 0.00 0.00 0.00 82 1007.3
20260505062333 72 178 4.3 6.1 0.00 0.00 0.00 82 1007.3
20260505061830 72 226 4.3 6.1 0.00 0.00 0.00 82 1007.3
20260505061328 72 166 3.5 5.2 0.00 0.00 0.00 82 1007.6
20260505060825 72 202 5.2 6.1 0.00 0.00 0.00 81 1007.3
20260505060322 72 153 3.5 5.2 0.00 0.00 0.00 81 1007.4
20260505055818 72 201 1.7 2.6 0.00 0.00 0.00 81 1007.4
20260505055314 72 204 5.2 7.0 0.00 0.00 0.00 81 1007.7
20260505054812 73 152 2.6 4.3 0.00 0.00 0.00 80 1007.4
20260505054309 73 178 2.6 2.6 0.00 0.00 0.00 80 1007.5
20260505053807 73 155 5.2 7.0 0.00 0.00 0.00 80 1007.6
20260505053303 73 189 4.3 5.2 0.00 0.00 0.00 80 1007.7
20260505052800 73 180 2.6 2.6 0.00 0.00 0.00 79 1007.8
20260505052257 73 235 4.3 4.3 0.00 0.00 0.00 79 1007.8
20260505051754 73 212 6.1 7.0 0.00 0.00 0.00 79 1007.8
20260505051252 73 117 4.3 7.8 0.00 0.00 0.00 78 1007.9
20260505050750 73 170 6.1 8.7 0.00 0.00 0.00 78 1007.8
20260505050248 73 216 5.2 7.8 0.00 0.00 0.00 78 1008.0
20260505041718 74 174 5.2 6.1 0.00 0.00 0.00 75 1008.1
20260505041215 74 163 3.5 4.3 0.00 0.00 0.00 75 1008.1
20260505040712 74 170 4.3 6.1 0.00 0.00 0.00 75 1007.9
20260505040204 74 193 2.6 2.6 0.00 0.00 0.00 74 1008.0
20260505035700 74 155 7.0 9.6 0.00 0.00 0.00 74 1008.0
20260505035156 74 83 1.7 4.3 0.00 0.00 0.00 74 1007.9
20260505034653 74 169 6.1 7.0 0.00 0.00 0.00 74 1007.8
20260505034151 75 189 2.6 2.6 0.00 0.00 0.00 74 1007.6
20260505033646 75 193 2.6 2.6 0.00 0.00 0.00 73 1007.7
20260505033145 75 174 6.1 8.7 0.00 0.00 0.00 73 1008.0
20260505032643 75 154 4.3 6.1 0.00 0.00 0.00 73 1007.9
20260505032138 75 160 1.7 1.7 0.00 0.00 0.00 73 1007.8
20260505031636 75 121 4.3 5.2 0.00 0.00 0.00 73 1008.0
20260505031132 75 215 1.7 2.6 0.00 0.00 0.00 73 1007.9
20260505030629 75 149 5.2 7.0 0.00 0.00 0.00 72 1007.9
20260505030125 75 173 1.7 1.7 0.00 0.00 0.00 72 1007.8
20260505025620 75 182 0.9 0.9 0.00 0.00 0.00 72 1008.1
20260505025120 75 219 3.5 5.2 0.00 0.00 0.00 72 1008.0
20260505024617 75 173 1.7 4.3 0.00 0.00 0.00 72 1007.9
20260505024114 75 182 2.6 2.6 0.00 0.00 0.00 72 1008.0
20260505023611 75 194 4.3 6.1 0.00 0.00 0.00 71 1007.8
20260505023109 75 168 2.6 2.6 0.00 0.00 0.00 72 1007.5
20260505022606 75 153 2.6 4.3 0.00 0.00 0.00 72 1007.5
20260505022103 75 198 2.6 4.3 0.00 0.00 0.00 71 1007.9
20260505021559 75 173 1.7 1.7 0.00 0.00 0.00 71 1007.7
20260505021056 76 149 3.5 5.2 0.00 0.00 0.00 71 1007.7
20260505020556 76 175 5.2 6.1 0.00 0.00 0.00 70 1007.7
20260505020053 76 202 6.1 8.7 0.00 0.00 0.00 71 1007.6
20260505015550 76 212 3.5 5.2 0.00 0.00 0.00 70 1007.8
20260505015047 76 143 2.6 6.1 0.00 0.00 0.00 70 1007.8
20260505014544 76 195 2.6 6.1 0.00 0.00 0.00 70 1007.6
20260505014041 76 167 1.7 2.6 0.00 0.00 0.00 69 1007.6
20260505013538 76 188 2.6 7.0 0.00 0.00 0.00 69 1007.8
20260505013036 76 172 5.2 7.8 0.00 0.00 0.00 69 1007.8
20260505012533 76 201 6.1 8.7 0.00 0.00 0.00 69 1007.9
20260505012030 77 171 1.7 2.6 0.00 0.00 0.00 68 1007.7
20260505011526 77 175 6.1 7.8 0.00 0.00 0.00 68 1007.6
20260505011023 77 190 5.2 7.0 0.00 0.00 0.00 68 1007.9
20260505010518 77 177 2.6 2.6 0.00 0.00 0.00 68 1007.6
20260505010015 77 176 6.1 8.7 0.00 0.00 0.00 67 1007.6
20260505005512 77 180 7.8 9.6 0.00 0.00 0.00 67 1007.5
20260505005009 77 159 6.1 8.7 0.00 0.00 0.00 67 1007.6
20260505004506 77 172 5.2 7.8 0.00 0.00 0.00 67 1007.7
20260505004003 77 174 2.6 2.6 0.00 0.00 0.00 66 1007.9
20260505003500 78 195 6.1 8.7 0.00 0.00 0.00 66 1008.0
20260505002956 78 177 4.3 7.0 0.00 0.00 0.00 66 1007.8
20260505002452 78 224 5.2 7.0 0.00 0.00 0.00 65 1007.8
20260505001951 78 103 7.8 9.6 0.00 0.00 0.00 65 1007.7
20260505001448 78 181 4.3 6.1 0.00 0.00 0.00 64 1008.0
20260505000945 78 199 3.5 5.2 0.00 0.00 0.00 64 1007.8
20260505000443 78 176 2.6 2.6 0.00 0.00 0.00 64 1007.8
20260504235940 78 226 7.8 12.2 0.00 0.00 0.00 64 1007.8
20260504235437 79 184 4.3 9.6 0.00 0.00 0.00 64 1007.9
20260504234933 79 186 9.6 15.6 0.00 0.00 0.00 64 1008.1
20260504234431 79 214 4.3 6.1 0.00 0.00 0.00 64 1008.2
20260504233927 79 234 5.2 7.8 0.00 0.00 0.00 63 1008.0
20260504233423 79 151 6.1 8.7 0.00 0.00 0.00 63 1008.2
20260504232920 79 180 4.3 5.2 0.00 0.00 0.00 62 1008.1
20260504232417 79 175 5.2 7.0 0.00 0.00 0.00 62 1008.1
20260504231914 79 179 4.3 7.0 0.00 0.00 0.00 62 1008.0
20260504231410 79 181 8.7 11.3 0.00 0.00 0.00 62 1008.4
20260504230907 80 154 3.5 4.3 0.00 0.00 0.00 61 1008.4
20260504230404 80 201 7.8 11.3 0.00 0.00 0.00 60 1008.5
20260504225903 81 178 3.5 7.0 0.00 0.00 0.00 60 1008.4
20260504225359 80 183 4.3 6.1 0.00 0.00 0.00 60 1008.4
20260504224856 80 169 2.6 5.2 0.00 0.00 0.00 60 1008.6